Regional Weather Roundup
Issued by NWS Newport/Morehead, NC

Current Version | Previous Version | Graphics & Text | Print | Product List | Glossary Off
Versions: 1 2 3 4 5 6 7 8 9 10 11 12 13 14 15 16 17 18 19 20 21 22 23 24 25 26 27 28 29 30 31 32 33 34 35 36 37 38 39 40 41 42 43 44 45 46 47 48 49 50

000
ASUS42 KMHX 031613
RWRMHX
WEATHER ROUNDUP FOR EASTERN NORTH CAROLINA
NATIONAL WEATHER SERVICE NEWPORT/MOREHEAD CITY NC
1200 PM EDT FRI JUL 03 2015

NOTE: "FAIR" INDICATES FEW OR NO CLOUDS BELOW 12,000 FEET
WITH NO SIGNIFICANT WEATHER AND/OR OBSTRUCTIONS TO VISIBILITY

NCZ015>017-031-032-045>047-102-103-031700-
NORTH COAST

CITY           SKY/WX    TMP DP  RH WIND       PRES   REMARKS
EDENTON          N/A     79  71  74 E6        29.99S
ELIZABETH CITY CLOUDY    79  68  69 CALM      29.99S
KITTY HAWK     PTSUNNY   80  71  71 NE3       29.98S
MANTEO         CLOUDY    77  71  81 E7        29.99S

$$

NCZ045>047-081-094-103-104-031700-
CENTRAL COAST

CITY           SKY/WX    TMP DP  RH WIND       PRES   REMARKS
FRISCO         PTSUNNY   79  70  74 SW9       30.00R
SWANQUARTER      N/A     82 N/A N/A SW5       29.94F

$$

NCZ095-097-098-100-101-031700-
SOUTHERN COAST

CITY           SKY/WX    TMP DP  RH WIND       PRES   REMARKS
BEAUFORT       LGT RAIN  79  71  76 SW10      29.99F
CEDAR ISLAND     N/A     81 N/A N/A W7G14     30.03S
JACKSONVILLE   PTSUNNY   81  71  71 SW7       29.98S
PINEY ISLAND   MOSUNNY  N/A N/A N/A VRB5      29.99F
WILMINGTON     CLOUDY    78  72  81 SW9       30.00S


$$

NCZ011>013-027>030-043-044-078>080-089-090>093-098-031700-
COASTAL PLAIN

CITY           SKY/WX    TMP DP  RH WIND       PRES   REMARKS
AHOSKIE        MOSUNNY   77  69  76 CALM      29.98S
CLINTON        CLOUDY    75  71  89 SW5       30.00S
ELIZABETHTOWN  CLOUDY    75  72  89 SW3       30.00R
GOLDSBORO      CLOUDY    78  71  78 S5        29.97R
GREENVILLE     PTSUNNY   81  72  74 CALM      30.00S
HAVELOCK       PTSUNNY   79  68  69 VRB3      29.99F
KENANSVILLE    CLOUDY    76  69  78 SW7       30.00S
KINSTON        MOSUNNY   79  70  73 S7        30.00R
NEW BERN       MOSUNNY   81  71  71 SE8       29.99F
RICHLANDS      CLOUDY    82  70  65 SW7       29.99S
ROCKY MOUNT    PTSUNNY   81  71  71 VRB6      29.97S
WASHINGTON     SUNNY     80  70  72 S6        29.98F
WHITEVILLE     LGT RAIN  75  73  91 CALM      30.00F

$$

AMZ130-135-150-152-154-156-158-170-250-252-270-ANZ085-086-088-633-658-670-031700-
MARINE OBSERVATIONS

STATION/POSITION TIME  TEMP    WIND        PRES    WAVE   SWELL
                       AIR SEA DIR/SP/G            HT/PER HT/PER
                 (UTC) (F)     (DEG/KT/KT) (MB)    (FT/S) (FT/S)
CHESAPEAKE LIGHT 1600   74      80/  4/  5 1016.6
64 E VA BEACH    1550   75 76   30/  6/  8 1015.0    4/ 7   3/ 7
DUCK             1500   75 72   40/  5/  6 1014.7
2 E DUCK         1511      74                N/A     3/ 4
OREGON INLET     1500   76 80   50/  3/  4 1015.3
13E OREGON INLT  1600      74                N/A     4/ 7
HATTERAS CG      1500   78 78  220/  8/ 11 1015.4
DIAMOND BUOY     1550   76 82  260/ 16/ 17 1015.7    5/ 7   3/ 7
CAPE LOOKOUT     1600   79     240/  9/ 12 1015.5
BEAUFORT LAB     1500   79 80  270/  4/ 12 1015.2
30 SE NEW RVR IN 1508   75 80  240/ 17/ 23 1015.7
27 SE WRIGHTSVLE 1500      80  240/  8/ 10   N/A
5 SE WRIGHTSVLE  1508   77 79  230/  6/ 10 1016.0
225 S CAPE HAT   1550   77 80  280/ 21/ 27 1019.7    6/ 7   2/15
41 SE CHARLESTON 1550   80 81  230/ 16/ 19 1016.5    4/ 5   2/ 9

$$


USA.gov is the U.S. government's official web portal to all federal, state and local government web resources and services.